This demonstration page uses our WeatherBlox Daily Observations layout. Learn more.

Left ArrowRight Arrow

Hourly Observations for June 5, 2020

Temp ( °F °C ) Dew Point ( °F °C ) Humidity (%) Winds ( mph kmh ) Pressure ( in mb ) Visibility ( mi km ) Precip ( " mm )
12:53 am 00:53 Mostly Clear 46 7.8 37 2.8 71 71 WSW 5 7 29.93 1014 10 16 N/A
1:53 am 01:53 Mostly Clear 46 7.8 37 2.8 71 71 W 7 11 29.94 1014 10 16 N/A
2:53 am 02:53 Clear 44 6.7 36 2.2 73 73 S 6 9 29.94 1014 10 16 N/A
3:53 am 03:53 Mostly Cloudy 45 7.2 36 2.2 71 71 N N/A 29.94 1014 10 16 N/A
4:53 am 04:53 Mostly Cloudy 45 7.2 38 3.3 77 77 NW 3 6 29.94 1014 10 16 N/A
5:53 am 05:53 Mostly Cloudy 45 7.2 38 3.3 77 77 N N/A 29.95 1014 10 16 N/A
6:53 am 06:53 Mostly Cloudy 50 10 39 3.9 66 66 N N/A 29.95 1014 10 16 N/A
7:53 am 07:53 Sunny 53 11.7 38 3.3 57 57 ENE 8 13 29.94 1014 10 16 N/A
8:53 am 08:53 Sunny 59 15 40 4.4 49 49 E 10 17 29.92 1013 10 16 N/A
9:53 am 09:53 Sunny 65 18.3 39 3.9 39 39 ENE 13 20 29.91 1013 10 16 N/A
10:53 am 10:53 Sunny 69 20.6 41 5 36 36 ENE 15 24 29.89 1012 10 16 N/A
11:53 am 11:53 Sunny 74 23.3 42 5.6 32 32 E 17 28 29.87 1011 10 16 N/A
12:53 pm 12:53 Partly Cloudy 77 25 43 6.1 30 30 E 18 30 29.83 1010 10 16 N/A
1:53 pm 13:53 Sunny 78 25.6 40 4.4 26 26 SE 7 11 29.80 1009 10 16 N/A
2:53 pm 14:53 Mostly Sunny 81 27.2 41 5 24 24 ESE 15 24 29.77 1008 10 16 N/A
3:53 pm 15:53 Mostly Sunny 80 26.7 43 6.1 27 27 ESE 21 33 29.75 1008 10 16 N/A
4:53 pm 16:53 Mostly Sunny 79 26.1 42 5.6 27 27 E 22 35 29.73 1007 10 16 N/A
5:53 pm 17:53 Sunny 79 26.1 41 5 26 26 ESE 26 43 29.71 1006 10 16 N/A
6:53 pm 18:53 Sunny 77 25 41 5 28 28 E 28 44 29.68 1005 10 16 N/A
7:53 pm 19:53 Sunny 77 25 40 4.4 26 26 E 30 48 29.67 1005 10 16 N/A
8:53 pm 20:53 Sunny 73 22.8 41 5 32 32 E 24 39 29.65 1004 10 16 N/A
9:53 pm 21:53 Clear 71 21.7 41 5 34 34 E 29 46 29.63 1003 10 16 N/A
10:53 pm 22:53 Clear 67 19.4 42 5.6 41 41 E 29 46 29.61 1003 10 16 N/A
11:53 pm 23:53 Mostly Cloudy 65 18.3 44 6.7 47 47 E 30 48 29.59 1002 10 16 N/A

Powered by AerisWeather